Weather reports worldwide

Advertisment
Cardiff, Bute Park, United Kingdom (99160): temperature & dewpoint: 13.01.2019 11:00:00 - 19.01.2019 11:00:00 (GMT)Cardiff, Bute Park, United Kingdom (99160): temperature -20cm & temperature -100cm: 13.01.2019 11:00:00 - 19.01.2019 11:00:00 (GMT)Cardiff, Bute Park, United Kingdom (99160): precipitation: 13.01.2019 11:00:00 - 19.01.2019 11:00:00 (GMT)
Date & Time tt [°C] td [°C] tt -20cm [°C] tt -100cm [°C] rr [mm]
19.01.2019 11:00:00 7,3 6,4 - - 0,0
19.01.2019 10:00:00 6,8 6,4 - - 0,0
19.01.2019 09:00:00 6,7 6,2 6,2 7,7 0,0
19.01.2019 08:00:00 6,6 6,1 - - 0,4
19.01.2019 07:00:00 6,4 6,0 - - 1,0
19.01.2019 06:00:00 6,5 6,0 - - 0,2
19.01.2019 05:00:00 6,4 5,6 - - 0,2
19.01.2019 04:00:00 6,4 5,7 - - 0,2
19.01.2019 03:00:00 6,1 5,4 - - 0,0
19.01.2019 02:00:00 5,8 5,0 - - 0,0
19.01.2019 01:00:00 5,7 5,1 - - 0,0
19.01.2019 00:00:00 5,5 4,9 - - 0,8
18.01.2019 23:00:00 5,9 4,9 - - 0,0
18.01.2019 22:00:00 5,6 4,7 - - 0,6
18.01.2019 21:00:00 5,5 4,1 - - 0,0
18.01.2019 20:00:00 5,7 4,1 - - 0,0
18.01.2019 19:00:00 5,8 4,3 - - 1,0
18.01.2019 18:00:00 5,8 4,0 - - 0,2
18.01.2019 17:00:00 5,8 3,6 - - 0,4
18.01.2019 16:00:00 6,1 2,5 - - 0,2
18.01.2019 15:00:00 6,9 1,9 - - 0,0
18.01.2019 14:00:00 6,8 2,5 - - 0,0
18.01.2019 13:00:00 7,1 3,0 - - 0,0
18.01.2019 12:00:00 6,2 3,4 - - 0,2
18.01.2019 11:00:00 5,6 3,0 - - 0,2
18.01.2019 10:00:00 4,9 2,4 - - 0,6
18.01.2019 09:00:00 4,9 0,7 6,2 7,9 0,0
18.01.2019 08:00:00 4,8 0,5 - - 0,0
18.01.2019 07:00:00 4,5 0,5 - - 0,0
18.01.2019 06:00:00 3,4 -0,3 - - 0,0
18.01.2019 05:00:00 3,3 -1,0 - - 0,0
18.01.2019 04:00:00 2,3 -0,4 - - 0,0
18.01.2019 03:00:00 0,9 0,0 - - 0,0
18.01.2019 02:00:00 -0,4 -0,8 - - 0,0
18.01.2019 01:00:00 -0,7 -1,1 - - 0,0
18.01.2019 00:00:00 -0,8 -1,4 - - 0,0
17.01.2019 23:00:00 -0,4 -0,9 - - 0,0
17.01.2019 22:00:00 -0,4 -1,4 - - 0,0
17.01.2019 21:00:00 -0,1 -1,0 - - 0,0
17.01.2019 20:00:00 0,0 -1,4 - - 0,0
17.01.2019 19:00:00 0,1 -1,6 - - 0,0
17.01.2019 18:00:00 1,5 -1,3 - - 0,0
17.01.2019 17:00:00 2,2 -2,4 - - 0,0
17.01.2019 16:00:00 4,7 -3,5 - - 0,0
17.01.2019 15:00:00 6,2 -3,6 - - 0,0
17.01.2019 14:00:00 6,8 -2,2 - - 0,0
17.01.2019 13:00:00 6,4 -2,1 - - 0,0
17.01.2019 12:00:00 6,0 -1,6 - - 0,0
17.01.2019 11:00:00 5,4 -1,8 - - 0,0
17.01.2019 10:00:00 3,2 -1,9 - - 0,2
17.01.2019 09:00:00 2,9 -1,2 7,0 7,9 0,0
17.01.2019 08:00:00 3,2 1,4 - - 0,0
17.01.2019 07:00:00 2,6 1,9 - - 0,0
17.01.2019 06:00:00 2,2 2,1 - - 0,0
17.01.2019 05:00:00 2,1 1,8 - - 0,0
17.01.2019 04:00:00 2,1 1,9 - - 0,0
17.01.2019 03:00:00 2,0 1,4 - - 0,0
17.01.2019 02:00:00 3,0 2,3 - - 0,0
17.01.2019 01:00:00 4,1 3,7 - - 0,0
17.01.2019 00:00:00 3,2 3,1 - - 0,0
16.01.2019 23:00:00 2,9 2,4 - - 0,0
16.01.2019 22:00:00 3,8 3,3 - - 2,0
16.01.2019 21:00:00 4,6 4,2 - - 1,4
16.01.2019 20:00:00 5,3 5,1 - - 0,6
16.01.2019 19:00:00 3,2 2,8 - - 0,0
16.01.2019 18:00:00 4,0 3,2 - - 0,0
16.01.2019 17:00:00 5,7 4,8 - - 0,0
16.01.2019 16:00:00 6,6 4,8 - - 0,0
16.01.2019 15:00:00 6,8 4,7 - - 0,0
16.01.2019 14:00:00 7,0 4,1 - - 0,2
16.01.2019 13:00:00 7,1 5,1 - - 0,0
16.01.2019 12:00:00 11,4 8,5 - - 0,0
16.01.2019 11:00:00 10,7 7,8 - - 0,0
16.01.2019 10:00:00 9,7 8,1 - - 0,0
16.01.2019 09:00:00 9,0 8,1 7,4 7,9 0,2
16.01.2019 08:00:00 8,9 8,3 - - 0,6
16.01.2019 07:00:00 8,9 8,0 - - 0,4
16.01.2019 06:00:00 9,5 7,0 - - 0,0
16.01.2019 05:00:00 9,2 7,1 - - 0,0
16.01.2019 04:00:00 9,3 7,1 - - 0,0
16.01.2019 03:00:00 9,4 7,3 - - 0,0
16.01.2019 02:00:00 9,5 7,4 - - 0,0
16.01.2019 01:00:00 9,4 7,3 - - 0,0
16.01.2019 00:00:00 9,4 7,1 - - 0,0
15.01.2019 23:00:00 9,2 7,0 - - 0,0
15.01.2019 22:00:00 9,0 6,8 - - 0,0
15.01.2019 21:00:00 8,7 6,7 - - 0,0
15.01.2019 20:00:00 8,7 6,4 - - 0,0
15.01.2019 19:00:00 8,5 7,1 - - 0,2
15.01.2019 18:00:00 8,5 7,6 - - 0,0
15.01.2019 17:00:00 8,6 7,9 - - 0,2
15.01.2019 16:00:00 9,4 7,5 - - 0,0
15.01.2019 15:00:00 9,8 7,6 - - 0,0
15.01.2019 14:00:00 9,4 8,1 - - 0,0
15.01.2019 13:00:00 9,8 7,5 - - 0,0
15.01.2019 12:00:00 9,5 7,8 - - 0,0
15.01.2019 11:00:00 9,5 7,8 - - 0,0
15.01.2019 10:00:00 8,8 7,9 - - 0,4
15.01.2019 09:00:00 8,5 8,0 7,0 7,9 0,2
15.01.2019 08:00:00 8,1 7,6 - - 0,0
15.01.2019 07:00:00 8,0 7,4 - - 0,2
15.01.2019 06:00:00 7,9 7,1 - - 0,2
15.01.2019 05:00:00 8,0 6,6 - - 0,0
15.01.2019 04:00:00 7,3 6,3 - - 0,0
15.01.2019 03:00:00 6,6 5,9 - - 0,0
15.01.2019 02:00:00 5,4 4,5 - - 0,0
15.01.2019 01:00:00 4,0 3,7 - - 0,0
15.01.2019 00:00:00 1,7 1,0 - - 0,0
14.01.2019 23:00:00 2,3 1,2 - - 0,0
14.01.2019 22:00:00 3,5 1,7 - - 0,0
14.01.2019 21:00:00 5,7 2,6 - - 0,0
14.01.2019 20:00:00 7,3 3,3 - - 0,0
14.01.2019 19:00:00 7,6 4,1 - - 0,0
14.01.2019 18:00:00 6,8 3,2 - - 0,0
14.01.2019 17:00:00 7,9 3,8 - - 0,0
14.01.2019 16:00:00 8,6 4,0 - - 0,0
14.01.2019 15:00:00 9,2 2,7 - - 0,0
14.01.2019 14:00:00 9,5 2,6 - - 0,0
14.01.2019 13:00:00 9,3 2,7 - - 0,0
14.01.2019 12:00:00 9,3 2,6 - - 0,0
14.01.2019 11:00:00 9,1 2,6 - - 0,0
14.01.2019 10:00:00 8,4 2,5 - - 0,0
14.01.2019 09:00:00 7,8 2,1 7,2 7,7 0,0
14.01.2019 08:00:00 8,3 2,2 - - 0,0
14.01.2019 07:00:00 7,7 2,2 - - 0,0
14.01.2019 06:00:00 8,4 2,8 - - 0,0
14.01.2019 05:00:00 8,7 2,7 - - 0,0
14.01.2019 04:00:00 8,7 2,9 - - 0,0
14.01.2019 03:00:00 8,8 2,6 - - 0,0
14.01.2019 02:00:00 9,1 2,1 - - 0,0
14.01.2019 01:00:00 9,1 1,9 - - 0,0
14.01.2019 00:00:00 9,3 1,7 - - 0,0
13.01.2019 23:00:00 9,0 1,7 - - 0,0
13.01.2019 22:00:00 9,7 2,8 - - 0,0
13.01.2019 21:00:00 10,5 3,8 - - 0,0
13.01.2019 20:00:00 11,0 4,6 - - 0,0
13.01.2019 19:00:00 11,4 6,7 - - 0,0
13.01.2019 18:00:00 11,3 6,9 - - 0,0
13.01.2019 17:00:00 10,7 8,1 - - 0,0
13.01.2019 16:00:00 10,3 8,8 - - 0,0
13.01.2019 15:00:00 10,4 8,5 - - 0,0
13.01.2019 14:00:00 9,8 8,9 - - 0,0
13.01.2019 13:00:00 9,8 9,0 - - 0,0
13.01.2019 12:00:00 10,2 8,0 - - 0,0
13.01.2019 11:00:00 10,3 7,9 - - 0,0

tt = temperature
td = dewpoint
tt -20cm = temperature -20cm
tt -100cm = temperature -100cm
rr = precipitation

Next stations